Zurück zum Katalog

STARLINK-30470

AktivKommunikationVLEO
NORAD 57892·PAYLOAD·🇺🇸 United States

Gestartet Sep 20, 2023 von Cape Canaveral Space Force Station

Loading…

Nächste Überflüge (nächste 24 Stunden)

TLE

AktuellSource: CelesTrak SupGP

Epoche: Sep 14, 2026, 21:14 UTC

1 57892C 23146B   26257.88520833 -.00023054  00000+0 -83515-3 0  2573
2 57892  43.0014 325.4505 0001491 269.2989 122.4051 15.27584477    15

Verfolge STARLINK-30470 in Echtzeit mit AllMySat

Download on the App Store